Weather History for KCEZ - November, 2013

Change the Weather History Date:

Monday, November 4, 2013

  Actual Average Record
Temperature  
Mean Temperature 38 °F 41 °F  
Max Temperature 53 °F 57 °F 73 °F (2001)
Min Temperature 23 °F 26 °F 17 °F (2007)
Degree Days  
Heating Degree Days 27 24  
Month to date heating degree days 94 92  
Since 1 July heating degree days 774 774  
Cooling Degree Days 0 0  
Month to date cooling degree days 0 0  
Year to date cooling degree days 667 426  
Moisture  
Dew Point 24 °F    
Average Humidity 62    
Maximum Humidity 88    
Minimum Humidity 35    
Precipitation  
Precipitation T in 0.05 in 0.06 in (2008)
Month to date precipitation T 0.19  
Year to date precipitation 12.32 11.61  
Sea Level Pressure  
Sea Level Pressure 29.87 in    
Wind  
Wind Speed 4 mph (SSE)    
Max Wind Speed 16 mph    
Max Gust Speed 20 mph    
Visibility 10 miles    
Events Rain    
T = Trace of Precipitation, MM = Missing Value Source: NWS Daily Summary

Daily Weather History Graph

Daily Weather History Graph

Search for Another Location

Airport or City:

Trip Planner

Search our weather history database for the weather conditions in past years. The results will help you decide how hot, cold, wet, or windy it might be!

Date:

Astronomy

Nov. 04, 2013 Rise Set
Actual Time 6:42 AM MST 5:13 PM MST
Civil Twilight 6:15 AM MST 5:40 PM MST
Nautical Twilight 5:44 AM MST 6:11 PM MST
Astronomical Twilight 5:13 AM MST 6:41 PM MST
Moon 7:55 AM MST (11/4) 6:22 PM MST (11/4)
Length of Visible Light 11h 25m
Length of Day
10h 30m
New Moon, 2% of the Moon is Illuminated
Nov 4
New Moon
Nov 9
First Quarter
Nov 17
Full
Nov 25
Last Quarter
Dec 2
New

Hourly Weather History & Observations

Time (MST) Temp. Windchill Dew Point Humidity Pressure Visibility Wind Dir Wind Speed Gust Speed Precip Events Conditions
12:53 AM 28.9 °F - 21.0 °F 72% 29.85 in 10.0 mi Calm Calm - N/A   Clear
1:53 AM 27.0 °F - 19.9 °F 75% 29.85 in 10.0 mi Calm Calm - N/A   Clear
2:53 AM 24.1 °F 18.2 °F 19.0 °F 81% 29.87 in 10.0 mi ESE 4.6 mph - N/A   Clear
3:53 AM 24.1 °F 15.2 °F 19.0 °F 81% 29.86 in 10.0 mi ENE 8.1 mph - N/A   Clear
4:53 AM 23.0 °F 17.0 °F 18.0 °F 81% 29.90 in 10.0 mi East 4.6 mph - N/A   Clear
5:53 AM 24.1 °F 19.7 °F 19.9 °F 84% 29.93 in 10.0 mi East 3.5 mph - N/A   Clear
6:53 AM 25.0 °F 19.3 °F 21.0 °F 85% 29.96 in 10.0 mi SE 4.6 mph - N/A   Clear
7:53 AM 30.0 °F - 23.0 °F 75% 29.97 in 10.0 mi Calm Calm - N/A   Clear
8:53 AM 36.0 °F - 24.1 °F 62% 29.94 in 10.0 mi Calm Calm - N/A   Clear
9:53 AM 42.1 °F - 25.0 °F 51% 29.92 in 10.0 mi Calm Calm - N/A   Clear
10:53 AM 46.9 °F - 24.1 °F 41% 29.89 in 10.0 mi SSW 4.6 mph - N/A   Clear
11:53 AM 48.9 °F - 25.0 °F 39% 29.86 in 10.0 mi SW 12.7 mph - N/A   Overcast
12:53 PM 48.9 °F - 25.0 °F 39% 29.84 in 10.0 mi SW 8.1 mph - N/A   Overcast
1:53 PM 52.0 °F - 24.1 °F 34% 29.82 in 10.0 mi SW 10.4 mph - N/A   Mostly Cloudy
2:53 PM 52.0 °F - 26.1 °F 37% 29.83 in 10.0 mi SSW 6.9 mph - N/A   Overcast
3:53 PM 51.1 °F - 26.1 °F 38% 29.84 in 10.0 mi SW 4.6 mph - N/A   Overcast
4:53 PM 48.0 °F - 25.0 °F 41% 29.86 in 10.0 mi NW 3.5 mph - N/A   Mostly Cloudy
5:53 PM 42.1 °F 40.2 °F 27.0 °F 55% 29.87 in 10.0 mi East 3.5 mph - N/A   Mostly Cloudy
6:53 PM 42.1 °F 39.2 °F 28.0 °F 58% 29.88 in 10.0 mi NNW 4.6 mph - N/A   Mostly Cloudy
7:53 PM 44.1 °F 38.6 °F 30.0 °F 58% 29.87 in 10.0 mi South 10.4 mph 16.1 mph 0.00 in Rain Light Rain
8:53 PM 44.1 °F - 30.9 °F 60% 29.86 in 10.0 mi Calm Calm - 0.00 in   Overcast
9:53 PM 43.0 °F - 25.0 °F 49% 29.84 in 10.0 mi Calm Calm - N/A   Overcast
10:53 PM 43.0 °F 41.3 °F 23.0 °F 45% 29.83 in 10.0 mi NNE 3.5 mph - N/A   Overcast
11:53 PM 37.9 °F 33.5 °F 17.1 °F 43% 29.86 in 10.0 mi North 5.8 mph - N/A   Overcast